Theta_e
331 334 334 333 334 333 332 335 339 344 344 345 346 346 343 341 341 343 344 344 345 343 339 334 331 328 328 325 323 321 318 318 318 318 317 317 318 318 319 319 318 317 317 316
330 332 331 330 330 332 334 338 343 344 343 345 348 346 343 342 345 342 344 343 343 343 342 336 334 331 329 327 324 322 319 319 318 318 318 318 318 319 319 318 318 317 317 316
329 330 329 334 336 337 339 339 343 342 343 343 345 347 347 345 344 342 341 341 341 343 342 340 336 333 330 328 325 322 320 319 319 320 318 318 318 318 317 317 317 318 317 316
330 330 332 336 336 335 338 338 341 343 343 339 343 339 347 346 345 343 342 342 340 339 341 340 338 335 330 328 325 322 320 319 318 320 319 321 320 320 319 318 318 317 317 316
330 330 332 334 335 337 342 340 342 341 341 342 345 341 346 343 344 342 340 339 337 338 341 339 338 335 330 328 325 323 321 320 319 320 320 320 320 320 319 317 318 317 317 316
330 329 333 336 337 338 339 341 341 340 339 342 343 342 336 342 342 338 338 337 336 338 339 338 337 335 330 328 325 323 321 320 319 319 320 321 321 321 320 319 318 316 316 315
331 333 335 337 339 339 340 342 341 340 338 338 344 344 336 340 339 338 337 338 337 339 340 339 337 335 331 329 326 322 322 320 319 319 320 320 320 321 320 319 317 317 316 315
332 336 336 336 335 337 340 340 338 339 336 334 343 337 338 339 339 340 338 338 338 339 339 338 336 333 331 329 326 322 322 320 319 318 319 319 319 319 320 318 318 317 316 315
332 333 333 333 332 336 340 339 337 338 341 339 333 335 339 340 341 341 340 339 341 340 340 339 337 332 330 329 326 323 322 320 319 319 319 320 319 319 320 319 319 317 317 315
333 335 334 332 332 332 336 335 338 338 337 336 334 336 334 335 339 341 341 341 342 341 340 339 335 331 330 329 326 323 322 320 319 319 318 318 319 319 319 320 319 318 317 317
333 335 337 336 335 335 334 335 337 338 337 334 335 334 334 336 337 339 340 340 341 340 339 337 333 330 330 328 325 323 321 320 319 319 319 319 319 318 319 319 319 319 318 317
334 336 334 333 336 334 335 336 337 337 336 337 338 337 335 339 340 341 339 338 338 338 337 335 331 330 329 328 325 322 321 320 318 319 319 319 319 319 319 319 319 320 319 318
337 337 336 337 338 337 337 337 337 340 342 336 338 335 339 341 342 341 339 338 338 338 336 333 330 330 329 328 326 321 321 320 318 318 318 319 319 319 319 319 319 320 320 319
337 344 337 332 334 334 337 336 336 340 340 334 336 335 336 340 338 339 340 337 336 337 336 333 332 329 328 327 325 322 321 319 318 319 319 319 319 320 319 319 319 319 320 319
344 342 340 336 334 334 332 331 334 337 336 336 334 336 336 336 336 335 338 339 336 336 335 334 333 330 328 326 325 323 321 320 319 319 319 319 319 319 319 318 318 319 319 320
340 340 339 337 336 335 334 332 335 335 336 336 337 339 337 338 335 338 340 340 339 338 336 334 332 330 328 326 326 324 321 321 320 320 320 318 318 318 319 318 318 319 319 319
342 341 339 333 336 333 332 331 330 333 336 338 340 342 338 338 337 338 340 340 339 338 336 334 333 330 328 327 326 324 322 321 321 320 320 318 318 318 319 318 318 319 319 320
343 342 336 331 333 332 335 336 337 338 337 338 339 339 339 340 340 338 336 336 338 337 336 335 332 330 328 327 326 325 321 321 321 320 320 318 318 318 318 319 319 319 319 320
342 341 336 332 332 332 332 338 339 339 338 340 340 339 339 339 338 340 334 334 336 336 334 333 330 329 328 327 326 324 321 321 320 320 319 318 318 318 318 319 319 320 320 320
341 343 340 335 334 335 334 339 338 338 339 339 339 340 340 337 336 336 332 333 334 332 331 330 329 329 329 327 326 323 321 321 320 320 319 319 318 318 319 319 320 320 320 320
341 340 335 333 336 334 340 338 336 340 343 339 338 339 339 335 336 335 333 333 332 331 330 329 329 328 328 327 325 323 321 321 320 320 320 319 319 319 320 320 321 321 321 321
337 338 339 340 339 338 339 338 338 343 343 340 339 338 338 337 335 332 332 333 331 330 329 328 328 328 328 326 325 324 323 322 321 321 320 320 321 320 319 320 321 321 321 322
343 342 343 345 344 344 341 344 342 342 343 341 340 337 337 335 334 331 332 333 331 330 329 327 327 328 328 326 326 326 325 324 323 323 324 324 324 324 323 323 323 323 322 322
343 340 341 342 342 340 340 339 339 341 343 340 337 335 335 333 334 332 332 333 331 331 330 327 327 326 327 327 326 327 327 326 326 326 326 326 326 326 326 325 325 324 323 323
340 341 342 342 339 338 339 340 341 340 338 336 334 334 334 333 333 333 332 333 331 331 330 329 328 328 327 328 328 328 327 327 327 327 326 326 326 326 326 326 326 325 324 324
339 339 339 340 342 346 343 340 337 337 337 337 336 334 334 335 335 332 332 331 331 331 330 331 331 330 330 329 328 328 327 327 327 327 325 325 325 326 326 326 325 325 324 323
Wind_Speed
7 8 3 7 7 9 7 3 1 3 3 7 5 3 12 11 9 9 9 9 9 9 8 9 7 4 3 3 8 11 13 11 10 9 9 8 8 7 8 10 12 14 15 16
7 4 5 5 2 3 3 3 4 4 3 7 3 4 11 13 13 12 12 10 9 9 9 10 9 6 2 2 5 8 11 10 8 8 8 8 8 7 8 9 11 14 15 16
12 10 2 4 8 8 4 3 5 4 6 2 5 10 12 13 13 12 12 10 11 11 10 10 10 7 4 1 3 5 8 7 6 7 7 7 6 5 9 11 12 14 15 15
4 4 5 9 6 5 6 2 5 7 8 5 4 4 14 14 14 12 13 13 14 13 11 11 11 9 6 2 1 2 5 6 6 7 6 8 7 10 10 11 12 13 14 14
5 2 5 5 5 3 5 7 6 5 3 4 7 6 9 9 13 14 14 12 12 13 12 11 11 9 7 5 3 2 3 3 5 4 6 8 9 9 9 11 11 12 12 13
4 2 3 3 6 3 13 9 5 4 4 7 5 4 3 5 10 11 15 14 13 11 10 11 9 9 8 7 4 2 1 2 4 3 5 6 8 9 10 11 11 12 11 12
7 4 7 9 10 7 5 7 5 3 1 4 4 5 6 1 2 6 11 15 14 12 10 10 11 12 10 8 6 3 2 2 2 3 4 6 7 7 8 9 10 11 12 12
5 8 10 8 3 5 9 4 6 10 10 9 2 4 4 1 2 4 7 10 12 12 12 11 11 11 10 9 7 5 3 3 2 2 3 4 6 8 7 8 8 9 11 11
6 4 6 2 3 6 6 7 4 7 5 8 4 2 8 5 7 7 9 11 12 13 12 10 11 11 10 10 7 5 4 3 3 2 3 3 5 5 7 7 8 8 9 10
4 4 6 5 6 3 6 3 4 5 6 9 2 4 6 2 4 7 10 12 13 13 12 11 12 13 11 10 8 6 5 5 5 4 4 4 4 5 5 7 8 8 8 8
6 5 7 5 10 9 5 8 3 4 5 7 6 5 4 3 2 6 8 11 11 11 11 11 13 13 12 10 8 7 6 6 6 6 6 5 5 6 6 7 8 8 8 8
4 4 8 7 3 4 6 8 4 6 3 2 6 6 6 2 2 3 6 7 9 10 11 13 14 14 14 12 9 7 6 6 7 7 8 7 7 7 7 8 9 9 8 8
7 4 7 7 7 6 7 7 8 4 4 11 9 5 5 4 4 4 6 6 8 10 11 12 13 14 15 13 10 8 7 6 7 7 9 9 9 9 9 9 8 9 9 8
4 3 9 10 3 3 4 9 9 10 8 11 9 11 3 5 4 5 7 7 9 10 12 12 12 14 14 14 11 9 8 6 6 7 8 9 10 10 10 10 10 9 9 9
4 6 5 3 1 3 7 9 7 12 15 12 15 9 5 1 4 4 5 8 9 10 12 14 12 15 16 14 11 10 9 7 6 7 7 8 9 8 9 10 10 10 10 10
3 3 4 6 3 5 8 9 8 11 13 12 13 13 1 4 3 4 5 7 10 11 13 14 14 17 16 15 13 11 10 8 8 8 8 8 7 7 9 10 11 12 11 12
4 5 5 8 2 7 10 5 8 8 9 8 10 8 2 5 3 1 2 5 8 10 11 11 12 16 17 16 13 11 10 9 9 8 8 8 8 8 8 10 11 13 14 13
4 4 2 5 4 10 5 2 5 8 10 7 7 3 2 2 2 2 5 7 6 6 7 7 11 14 14 12 11 9 9 9 9 10 9 9 10 10 10 11 12 14 15 16
2 5 3 6 8 5 11 4 3 6 8 4 4 3 2 3 2 8 8 5 5 5 2 5 9 12 13 13 10 10 9 9 9 9 9 9 10 12 12 14 14 14 15 17
3 4 7 5 10 12 6 5 1 0 6 6 2 2 1 3 6 9 7 6 5 4 4 5 8 11 12 10 9 9 9 9 10 9 9 9 12 13 15 16 16 15 16 18
6 5 10 10 8 7 5 4 3 7 4 3 1 3 3 2 5 4 3 6 7 7 9 9 10 10 10 10 8 7 8 9 9 9 10 11 13 15 16 17 17 18 19 21
9 7 7 4 7 11 5 6 4 4 3 1 2 2 3 3 5 4 5 8 10 11 10 8 8 9 9 8 8 7 8 7 8 10 11 13 14 15 16 18 19 20 21 22
4 3 4 4 5 3 2 1 3 2 5 4 3 1 3 5 5 7 7 8 9 10 9 9 8 8 7 8 8 7 6 6 8 9 11 13 16 18 19 20 22 22 22 23
4 2 4 3 4 2 2 5 7 5 5 2 3 4 2 5 6 6 7 8 9 9 10 9 8 7 8 9 9 10 8 9 10 12 16 18 17 21 22 23 24 24 24 24
5 4 2 5 5 3 1 3 3 1 1 1 3 3 4 5 6 6 7 9 10 9 8 8 7 5 5 5 7 9 11 12 15 16 18 18 19 20 22 23 24 24 26 26
5 2 5 3 2 3 9 7 6 6 7 6 5 5 5 5 6 6 5 7 9 9 7 6 4 2 4 4 6 8 9 10 12 15 17 19 19 21 23 23 23 24 26 28
Wind_Direction
211 219 314 339 289 314 308 300 213 78 116 236 250 208 172 183 209 221 214 201 207 206 178 183 186 158 111 50 39 34 30 23 20 17 8 5 10 16 19 16 12 12 11 10
199 242 5 342 332 174 170 160 113 123 148 252 193 202 165 190 212 221 215 220 209 206 189 196 199 179 160 72 42 34 35 24 16 15 6 359 360 8 5 9 8 9 9 10
265 65 156 154 134 130 121 324 167 1 160 186 208 210 197 210 216 220 226 222 223 211 200 200 205 200 189 171 50 37 35 18 6 3 8 2 351 354 4 1 4 4 5 9
246 82 140 178 151 277 154 216 177 164 217 7 219 4 187 197 212 216 222 219 220 211 207 201 201 199 202 184 141 59 40 16 0 359 10 9 359 1 359 354 356 357 3 8
115 280 182 185 57 4 92 154 176 212 265 284 163 268 109 187 217 211 206 202 206 202 202 201 197 200 196 180 190 135 67 12 356 350 358 348 356 357 358 355 352 358 5 8
73 109 39 80 60 69 137 142 157 227 277 234 76 279 263 172 240 208 193 193 192 197 195 201 191 183 191 183 187 172 102 350 349 335 339 344 343 343 352 355 350 358 3 7
173 92 101 144 99 140 231 214 265 282 246 357 94 250 314 292 200 241 193 194 190 190 200 199 190 184 185 187 199 195 192 280 325 336 326 333 334 333 335 345 355 347 358 4
231 156 162 179 280 237 215 294 322 315 351 350 136 289 41 101 174 228 239 195 190 193 201 201 189 189 186 187 203 198 200 249 285 332 324 330 335 335 328 351 346 350 353 358
201 154 150 215 214 215 163 235 12 285 199 264 46 199 203 211 235 204 205 204 189 195 197 198 187 187 188 186 196 213 219 228 232 287 292 322 332 333 332 337 337 346 346 350
177 201 207 124 163 163 275 107 233 219 315 320 38 283 4 328 183 191 192 196 195 195 195 198 185 184 192 192 189 202 226 232 229 249 279 307 326 330 326 326 331 332 336 342
183 235 150 176 212 262 170 211 257 302 284 320 314 10 85 328 322 195 202 194 193 195 197 187 186 183 190 194 201 200 221 245 239 243 258 274 300 314 323 321 317 320 324 330
186 218 239 238 85 309 289 296 242 286 311 269 292 288 128 197 200 252 225 189 189 192 190 185 187 183 189 194 201 204 226 253 249 251 253 263 279 293 307 318 313 309 311 316
176 211 225 210 192 196 232 218 250 257 278 277 294 330 150 164 224 209 229 201 195 193 190 185 186 188 191 197 200 207 216 244 252 251 259 260 271 282 296 307 312 302 305 307
172 198 261 259 309 23 200 232 233 228 271 293 268 294 237 187 205 191 205 206 208 194 193 199 192 194 195 197 198 203 214 229 235 249 264 277 279 278 289 296 300 298 301 303
210 242 237 276 299 244 288 290 234 238 258 280 299 306 345 258 173 196 194 211 213 199 208 206 200 202 202 196 197 205 213 220 230 248 265 283 281 273 284 287 294 296 295 298
191 215 213 218 216 265 276 282 277 272 272 278 281 282 255 114 160 186 215 229 230 217 212 211 200 206 203 196 200 204 211 216 226 245 268 282 269 272 283 278 281 291 292 292
203 168 224 271 235 276 262 310 314 294 276 292 289 33 118 201 198 283 313 264 257 240 220 214 203 208 203 199 196 204 208 213 224 248 262 270 264 267 275 276 277 283 286 287
193 198 239 295 256 257 67 34 288 287 292 266 253 215 343 1 47 40 18 337 309 275 235 216 201 204 199 194 195 203 204 211 224 242 251 259 260 262 266 272 276 281 280 277
271 235 212 262 259 301 280 173 277 321 332 12 283 244 10 68 243 100 46 6 340 331 255 190 194 186 188 191 188 201 208 221 232 249 254 261 261 261 264 266 271 275 277 274
175 244 258 222 273 280 338 85 347 311 269 64 53 16 25 321 297 63 28 35 44 79 126 153 153 162 175 180 188 204 219 228 239 245 256 260 261 259 260 264 266 271 273 275
217 237 257 252 263 283 57 122 141 255 58 92 197 182 185 325 41 64 79 87 104 112 124 135 148 163 171 178 191 214 230 238 248 254 255 258 262 265 266 270 269 269 271 276
253 238 225 250 264 266 121 148 261 94 175 306 308 291 242 143 121 137 137 133 135 136 133 141 153 158 166 181 195 222 237 251 253 255 265 277 279 277 278 276 275 273 273 274
243 286 319 266 20 54 193 342 112 253 275 307 310 297 239 207 189 181 167 158 151 152 146 153 155 163 180 198 218 234 253 257 262 269 276 279 280 278 276 273 273 272 269 268
198 204 253 283 119 245 255 239 260 267 268 329 348 338 278 264 235 204 177 171 171 174 166 158 163 173 198 218 230 249 263 265 266 269 272 274 278 280 278 276 275 272 273 275
24 172 251 252 221 265 198 7 345 59 93 46 34 5 335 301 262 243 205 186 187 182 175 172 178 197 231 248 263 275 280 281 277 272 274 282 285 285 283 279 278 277 277 278
181 232 251 35 66 289 59 48 55 72 59 48 24 19 8 328 307 274 246 200 180 174 168 179 197 237 321 325 318 314 308 296 287 284 283 287 297 299 299 295 292 290 284 287